Flag for Canada Weather past 2 weeks in Happy Valley-Goose Bay, Newfoundland and Labrador, Canada

39 °F

Sprinkles. Cloudy.

Feels Like: 39 °F
Forecast: 31 / 40 °F
Wind: 2 mph from East

Location: Goose

Current Time: Oct 10, 2015 at 10:29:15 AM

Latest Report: Oct 10, 2015 at 10:00 AM

Visibility: 12 mi

Pressure: 29.48 "Hg

Humidity: 75%

Dew point: 32 °F

Location of Happy Valley-Goose BayLocation

Historic Weather in Happy Valley-Goose Bay — Graph


Happy Valley-Goose Bay temperature yesterday

Maximum temperature yesterday: 52 °F (at 3:00 PM)
Minimum temperature yesterday: 34 °F (at 7:00 AM)
Average temperature yesterday: 42 °F

Past Weeks' High & Low Weather Summary

High75 °F (Sep 28, 3:00 PM)100% (Sep 27, 5:52 AM)30.64 "Hg (Sep 27, 5:52 AM)
Low30 °F (Oct 3, 1:00 AM)35% (Oct 4, 5:00 PM)29.45 "Hg (Oct 8, 2:00 AM)
Average47 °F70%30.02 "Hg
* Reported Sep 25 9:00 AM — Oct 10 9:00 AM, Happy Valley-Goose Bay, Weather by CustomWeather, © 2015

Note: Actual official high and low records may vary slightly from our data, if they occured in-between our weather recording intervals... More about our weather records


Happy Valley-Goose Bay weather history for previous 24 hours

Time TempWeatherWind HumidityBarometerVisibility
9:00 AM
Sat, Oct 10
39 °FSprinkles. Cloudy.No wind70%29.50 "Hg15 mi
8:00 AM37 °FMostly cloudy.2 mph75%29.52 "Hg15 mi
7:00 AM37 °FMostly cloudy.5 mph70%29.56 "Hg15 mi
6:00 AM39 °FOvercast.9 mph65%29.57 "Hg15 mi
5:00 AM39 °FPassing clouds.7 mph65%29.60 "Hg15 mi
4:00 AM39 °FPassing clouds.8 mph65%29.63 "Hg15 mi
3:00 AM39 °FMostly cloudy.9 mph65%29.64 "Hg15 mi
2:00 AM39 °FPassing clouds.9 mph70%29.66 "Hg15 mi
1:00 AM39 °FPassing clouds.6 mph65%29.69 "Hg15 mi
12:00 AM37 °FPassing clouds.7 mph70%29.70 "Hg15 mi
11:00 PM
Fri, Oct 9
39 °FPassing clouds.5 mph61%29.73 "Hg15 mi
10:00 PM37 °FPassing clouds.3 mph65%29.74 "Hg15 mi
9:00 PM39 °FPassing clouds.9 mph61%29.75 "Hg15 mi
8:00 PM43 °FPassing clouds.7 mph53%29.76 "Hg15 mi
7:00 PM45 °FPartly sunny.5 mph49%29.77 "Hg15 mi
6:00 PM48 °FPartly sunny.5 mph43%29.77 "Hg15 mi
5:00 PM52 °FPartly sunny.10 mph35%29.77 "Hg15 mi
4:00 PM52 °FPartly sunny.15 mph38%29.77 "Hg15 mi
3:00 PM52 °FScattered clouds.21 mph41%29.78 "Hg15 mi
2:00 PM50 °FScattered clouds.24 mph43%29.79 "Hg15 mi
1:00 PM50 °FPassing clouds.20 mph47%29.80 "Hg15 mi
12:00 PM46 °FPassing clouds.23 mph50%29.82 "Hg15 mi
11:00 AM45 °FPassing clouds.24 mph49%29.82 "Hg15 mi
10:00 AM41 °FPassing clouds.20 mph57%29.83 "Hg15 mi
Weather by CustomWeather, © 2015

See weather overviewHow to use our weather pages